Temp_Advection
nan nan nan nan nan nan nan nan nan nan nan nan nan nan nan nan nan nan nan nan nan nan nan nan nan nan nan nan nan nan nan nan nan nan nan nan nan nan nan nan nan nan nan nan nan nan nan
nan 0 0 0 0 0 0 0 -0 -0 -0 0 0 0 0 0 0 0 0 0 0 0 0 0 0 -0 -0 -0 -0 -0 -0 0 0 0 0 0 0 -0 -2 -0 -0 -0 0 -0 -0 -0 nan
nan -0 0 0 0 0 -0 -0 -0 -0 -0 0 0 0 0 0 0 0 0 0 0 0 0 -0 -0 -0 -0 -0 0 0 0 -0 0 0 -0 0 0 -1 -0 0 -0 -0 -0 0 -0 0 nan
nan -0 0 0 0 -0 -0 -0 -0 -0 -0 0 0 0 0 0 0 0 0 0 0 -0 -0 0 -0 0 -0 0 0 0 0 0 0 0 0 -0 -0 -0 -1 0 0 0 0 -0 0 0 nan
nan -0 -0 -0 -0 -0 -0 -0 -0 -0 0 0 0 0 -0 -0 0 0 0 0 0 0 0 0 0 0 0 0 -0 0 0 0 -0 0 0 0 -0 -0 -0 -0 0 0 0 -1 -0 -0 nan
nan -0 -0 -0 -0 -0 -0 -0 0 0 0 0 0 0 -0 -0 -0 -0 -0 0 0 0 0 0 0 0 0 0 -0 0 0 0 0 -0 -0 -0 -1 -0 -0 -0 -0 -0 -1 0 -0 0 nan
nan -0 -0 -0 -0 0 0 0 0 0 0 0 0 0 -0 -0 0 0 -0 -0 0 -0 -0 -0 -0 -0 -0 0 0 0 0 0 -0 -0 0 -0 0 0 0 0 -0 -1 -0 0 -0 0 nan
nan -0 -0 -0 -0 -0 0 0 -0 -0 -0 0 0 0 -0 -0 0 0 0 -0 -0 -0 -0 -0 -0 0 0 0 0 0 0 0 -0 -0 -1 0 0 -0 -0 -0 -1 0 0 -0 -0 -0 nan
nan -0 -0 -0 -0 -0 -0 -0 -0 -0 0 0 0 0 -0 0 0 0 0 -0 -0 0 -0 -0 0 0 0 0 0 0 0 -0 -0 0 -0 -0 0 0 -0 -0 0 -0 1 0 -0 -0 nan
nan -0 -0 -0 -0 -0 -0 -0 0 0 0 0 0 -0 -0 -0 0 -0 0 -0 -0 0 0 0 0 0 0 0 0 0 0 0 0 0 -0 0 0 0 -0 0 -0 0 -0 0 -0 -0 nan
nan -0 -0 -0 -0 -0 -0 0 0 0 0 0 0 -0 -0 -0 0 0 -0 -0 -0 0 -0 -0 -0 0 0 0 -0 -0 0 0 0 0 0 -0 -0 -0 -0 -0 -0 0 0 0 -0 -0 nan
nan -0 -0 0 -0 -0 -0 -0 0 0 0 0 0 0 -0 -0 -0 0 0 0 0 0 0 -0 -0 0 0 -0 0 0 0 0 -0 0 -1 -0 0 -0 -0 0 0 0 0 0 0 0 nan
nan -0 -0 -0 -0 -0 -0 -0 -0 0 0 0 0 0 0 -0 0 -0 -0 0 0 0 -0 0 -0 -0 -0 -0 0 0 0 0 -0 -0 0 0 -0 -0 0 -0 0 -0 0 0 0 0 nan
nan 0 -0 -0 -0 -0 -0 0 -0 0 0 0 0 0 0 0 0 0 -0 -0 -0 -0 -0 -0 -0 0 0 0 0 0 -0 -0 -0 0 -0 -0 -0 -0 -0 -0 -0 -0 -0 -0 0 0 nan
nan 0 0 -0 -0 -0 -0 -0 0 -0 0 0 0 0 -0 0 0 0 0 -0 0 -0 -0 -0 -0 -0 -0 -0 0 0 -0 -0 -0 -0 -0 -0 -0 0 0 0 -0 0 0 0 -0 0 nan
nan 0 0 -0 -0 -0 -0 -0 -0 -0 -0 0 0 0 0 0 0 0 -0 -0 0 -0 -0 -0 -0 -0 -0 -0 0 -0 -0 -0 -0 -0 -0 0 -0 -0 0 0 0 -0 0 -0 -0 -0 nan
nan -0 -0 0 -0 -0 -0 -0 -0 -0 -0 0 -0 0 0 0 0 0 -0 -0 -0 0 -0 -0 -0 -0 -0 -0 -0 -0 -0 -0 -0 -0 0 -0 0 -0 0 -0 -0 0 -0 -0 -0 -0 nan
nan -0 -0 -0 -0 -0 -0 -0 -0 -0 -0 -0 -0 0 0 0 0 -0 -0 -0 0 -0 -0 -0 -0 -0 -0 -0 -0 -0 -0 -0 -0 -0 -0 -0 -0 -0 -0 -0 -0 -0 -0 -0 -0 -0 nan
nan -0 -1 -0 -0 -0 -0 -0 -0 -0 -0 -0 -0 -0 -0 -0 -0 -0 -0 -0 -0 0 -0 -0 0 -0 -0 -0 -0 -0 -0 -0 -0 -0 -0 -0 -0 0 -0 -0 -0 -0 0 -0 -0 -0 nan
nan -0 -0 -0 -0 -0 -0 -0 -0 -0 -0 -0 -0 -0 -0 -0 0 -0 -0 -0 -0 0 -0 -0 -0 -0 -0 0 -0 0 -0 -0 0 -0 -0 -0 -0 -0 -0 -0 -0 0 0 -0 -0 -0 nan
nan -0 -0 -0 -0 -0 -0 -0 -0 -0 -0 -0 -0 -0 -0 -0 -0 -0 -0 -0 -0 -0 0 -0 -0 -0 -0 -0 -0 0 -0 -0 -0 0 -0 -0 0 -0 -0 0 0 -0 0 0 0 -0 nan
nan -0 -0 -0 -0 -0 -0 -0 -0 -0 -0 -0 -0 0 -0 -0 -0 -0 -0 -0 0 0 -0 -0 0 0 -0 -0 -0 -0 -0 -0 0 -0 0 0 -0 0 0 0 -0 -0 -1 -0 -0 -0 nan
nan -0 -0 -0 -0 -0 -0 -0 -0 -0 -0 -0 -0 -0 0 -0 -0 -0 0 0 0 0 0 -0 -0 -0 0 -0 -0 -0 -0 -0 -0 -0 -0 0 -0 -0 0 0 -0 -0 0 0 0 -0 nan
nan 0 -0 -0 -0 -0 -0 -0 -0 -0 -0 -0 -0 -0 -0 -0 0 0 0 0 0 0 0 0 0 0 -0 -0 0 -0 -0 -0 0 0 -0 -0 0 0 -0 -0 -0 -0 -0 -0 0 -0 nan
nan 0 -0 -0 0 0 0 -0 -0 -0 -0 -0 -0 -0 -0 -0 0 0 0 0 0 -0 -0 0 0 0 0 -0 -0 0 -0 -0 -0 -0 -0 -0 -0 0 -0 -0 0 -0 0 0 0 -0 nan
nan 0 0 0 0 0 0 -0 -0 -0 -0 -0 -0 -0 -0 -1 -0 -0 -0 -0 -0 0 0 0 0 0 0 -0 -0 -0 0 0 -0 -0 -0 -0 -0 -0 -0 -0 -0 -0 -0 0 -0 -0 nan
nan 0 0 0 0 0 0 0 0 -0 -0 -0 -0 -0 -0 -0 -0 -0 -0 -0 -0 -0 0 -0 -0 -0 -0 -0 -0 -0 0 -0 -0 0 -0 -0 -0 -0 -0 -0 -0 -0 -0 0 -0 -0 nan
nan -0 -0 0 0 0 0 0 0 0 0 -0 -0 -0 -0 -0 -0 -0 0 0 -0 -0 0 -0 -0 -0 -0 -0 -0 0 0 -0 -0 -0 -0 -0 -0 -0 -0 0 0 0 -0 -0 -0 -0 nan
nan nan nan nan nan nan nan nan nan nan nan nan nan nan nan nan nan nan nan nan nan nan nan nan nan nan nan nan nan nan nan nan nan nan nan nan nan nan nan nan nan nan nan nan nan nan nan
Wind_Speed
16 17 19 21 20 19 17 13 10 7 7 5 8 10 9 10 13 15 17 13 11 13 17 8 3 5 6 3 5 4 5 3 5 10 12 14 15 13 12 16 19 14 15 3 3 5 8
15 15 18 20 24 21 17 15 12 8 7 5 6 9 7 7 11 14 17 17 13 10 14 9 7 6 3 3 6 5 4 4 2 7 8 12 0 6 14 16 14 17 12 6 5 8 7
13 14 16 19 23 23 19 15 14 11 8 5 5 7 5 6 9 14 16 16 12 8 8 8 6 7 14 7 8 6 6 7 6 6 11 12 4 9 6 10 11 16 9 7 6 8 5
12 12 14 17 20 22 23 18 14 13 10 7 4 3 1 1 7 11 11 16 9 8 9 7 4 5 5 8 11 7 6 2 6 7 9 13 5 8 6 6 8 16 11 11 6 6 4
12 12 13 16 18 20 21 22 17 12 12 11 6 3 2 4 6 8 9 10 13 12 6 12 6 1 2 6 4 7 6 4 5 6 8 7 5 6 3 12 11 15 12 17 7 5 4
12 12 13 15 17 18 20 21 21 15 11 13 10 5 4 3 2 3 13 8 8 17 13 6 18 1 9 5 5 6 4 4 3 6 5 5 6 7 9 12 12 16 17 13 11 7 10
11 12 13 14 16 18 19 21 22 19 11 14 13 7 6 5 7 5 10 10 6 1 14 10 13 12 4 6 8 5 8 9 7 7 1 5 7 10 12 11 12 16 17 11 10 3 9
9 11 12 14 16 18 19 21 22 21 13 15 15 10 7 8 10 8 10 4 3 2 2 2 2 4 7 11 7 5 2 2 5 4 10 6 4 3 6 5 8 13 16 12 4 2 4
9 10 12 13 15 17 18 20 22 22 16 14 16 13 6 10 10 9 9 5 4 0 4 2 2 4 4 7 6 4 4 7 3 3 6 2 6 3 4 4 4 4 13 12 11 6 4
8 9 11 13 15 16 18 20 22 23 20 12 14 15 10 4 4 7 4 6 4 1 1 10 5 5 5 3 4 4 4 3 1 3 2 6 4 3 4 5 7 6 8 3 13 13 7
7 9 10 11 13 16 18 19 21 23 22 16 10 15 10 4 3 2 6 4 2 2 3 9 5 6 4 2 1 2 9 1 3 5 2 4 5 9 8 5 10 6 3 6 10 5 6
7 8 9 11 12 15 17 19 21 23 23 19 10 11 12 6 3 2 2 2 1 0 3 3 4 7 3 4 2 6 3 2 2 6 11 4 2 4 6 5 4 8 6 7 5 4 2
7 7 8 10 12 13 16 18 20 22 23 21 11 8 13 7 3 3 1 1 1 4 1 6 4 6 4 6 3 5 6 6 3 4 3 5 5 3 7 3 3 2 7 3 3 2 2
6 7 8 9 11 12 15 17 20 22 23 22 11 5 15 8 5 2 2 3 5 1 2 2 3 5 4 8 4 5 2 4 10 6 1 2 2 6 9 5 4 2 3 2 3 5 4
7 7 8 9 11 12 14 16 19 21 23 23 11 4 16 10 6 3 2 5 1 2 3 5 4 2 3 3 4 3 6 5 7 9 4 1 3 0 2 5 4 2 2 2 1 2 2
7 7 8 9 11 13 14 16 18 20 22 23 11 4 12 9 6 4 3 2 3 3 5 3 4 4 4 5 1 2 5 4 4 7 5 4 2 1 2 2 1 3 2 3 2 2 3
7 7 8 10 10 13 15 17 18 19 21 21 8 2 12 9 4 3 3 3 1 1 3 5 5 4 3 4 4 2 4 3 6 6 4 5 3 3 2 1 5 1 2 1 2 2 2
6 7 9 10 12 12 14 17 20 20 20 19 5 2 12 6 1 3 3 2 1 1 1 1 3 4 5 5 4 2 3 4 7 6 4 5 4 2 1 1 2 3 3 3 3 2 2
6 6 9 10 12 13 14 15 17 19 20 19 7 3 7 6 2 2 3 3 1 2 2 1 1 1 2 4 1 3 3 3 6 5 5 5 1 2 2 3 2 3 1 2 1 2 4
6 5 6 8 10 13 15 15 16 16 16 15 5 2 3 7 4 2 1 1 2 1 1 2 2 2 2 1 2 2 1 1 3 4 5 5 2 4 3 3 1 2 4 4 4 2 2
5 6 6 7 8 11 13 14 15 14 13 10 4 2 2 2 3 3 1 1 1 2 2 2 2 3 3 2 1 1 0 2 2 2 2 3 3 3 5 3 3 5 5 7 10 9 5
9 9 8 7 7 9 11 13 13 11 9 4 1 2 2 1 1 2 2 2 2 1 2 2 3 1 2 3 5 4 3 1 2 2 2 0 1 2 4 1 5 8 11 12 12 13 13
13 13 12 10 9 9 9 8 10 9 7 2 2 1 1 1 1 3 0 2 1 1 2 3 2 2 3 1 2 1 1 2 4 4 2 3 2 2 2 3 8 10 14 15 7 7 10
18 18 15 13 11 9 9 7 6 9 8 4 3 1 3 2 3 1 1 1 2 3 2 1 2 3 2 1 2 2 2 2 3 2 2 3 3 2 3 4 3 2 4 4 10 5 11
22 20 19 16 13 11 10 8 5 5 6 8 6 2 3 4 3 5 4 4 3 3 4 3 3 2 2 1 3 3 3 3 2 1 3 2 3 2 3 3 9 6 4 6 8 6 11
23 24 22 19 16 15 13 11 7 6 4 5 6 5 1 5 2 2 2 2 3 3 3 3 3 5 3 3 2 2 2 3 1 1 1 2 5 4 1 4 4 4 5 2 1 6 12
11 15 19 20 21 18 15 13 10 8 7 6 5 4 3 3 3 1 3 3 1 2 3 2 2 2 3 3 3 4 3 0 3 3 4 3 4 8 7 5 7 8 9 5 3 3 9
7 7 9 11 13 16 16 15 14 12 10 10 9 7 4 3 9 8 7 4 3 3 4 3 2 3 3 4 3 3 3 2 2 1 3 6 5 5 4 5 7 11 6 4 4 6 5
8 11 12 11 10 12 12 12 12 12 13 14 15 11 11 8 9 16 19 17 15 12 4 5 3 1 2 3 2 1 3 2 3 4 3 4 7 3 6 2 2 14 2 8 3 3 5
Wind_Direction
52 48 42 32 27 31 28 20 4 352 353 346 0 4 3 358 349 354 351 344 323 0 10 7 4 330 356 34 17 2 4 65 150 192 202 205 213 203 210 200 179 223 203 220 270 267 243
52 46 42 34 34 32 30 29 23 18 9 356 10 14 22 37 10 11 6 8 354 325 2 18 32 12 335 56 1 8 51 63 117 162 173 182 151 286 279 184 182 200 171 179 197 176 195
52 47 40 36 35 34 30 25 24 23 18 360 2 22 61 63 23 5 3 5 5 359 337 11 22 103 56 25 26 34 57 97 60 123 151 169 49 324 212 152 194 183 164 167 175 168 177
53 47 39 35 34 33 31 22 17 18 10 2 343 3 94 25 357 357 21 29 9 44 37 16 331 39 76 42 42 19 22 112 54 130 148 179 284 295 278 143 167 178 189 177 148 163 184
49 44 38 33 32 29 28 24 14 7 7 359 339 300 292 264 322 355 338 325 355 7 18 35 20 31 21 18 38 21 29 89 99 92 126 124 293 267 215 181 164 185 183 193 151 176 196
42 37 31 28 29 26 24 22 16 4 358 356 348 304 292 247 230 358 7 348 342 22 11 14 14 344 17 359 4 72 56 70 119 123 144 223 247 204 203 189 177 179 187 185 166 167 209
42 34 28 21 23 23 21 19 17 10 0 359 353 323 263 230 214 293 341 2 344 173 35 72 50 75 36 43 41 62 70 80 104 54 130 196 212 186 186 191 305 180 184 167 98 157 207
39 31 28 20 18 19 16 16 17 17 10 1 358 350 264 238 237 280 327 359 356 268 67 95 159 19 32 45 58 66 91 44 60 160 236 174 173 357 334 295 301 163 175 144 113 228 219
27 27 22 19 15 15 14 12 14 14 8 1 1 2 340 248 250 276 313 345 351 198 282 62 283 336 331 15 23 24 34 101 138 344 68 160 53 0 273 206 202 230 172 150 166 166 75
18 16 18 14 12 10 9 9 10 11 7 358 2 4 2 331 251 268 282 340 7 105 196 5 14 16 1 22 350 10 63 7 43 50 104 54 32 356 183 147 322 165 53 148 155 182 159
8 10 10 10 10 6 3 6 7 8 5 359 354 6 5 356 260 241 284 310 343 126 34 342 6 355 9 24 99 116 2 340 25 329 267 29 16 359 59 359 306 96 111 164 175 135 117
355 1 357 1 8 4 1 2 3 5 4 1 348 354 4 5 343 295 284 306 63 98 46 9 347 357 31 53 332 313 354 38 331 81 78 87 50 29 359 360 45 106 141 155 179 148 158
338 343 350 351 0 3 358 358 0 2 1 1 354 356 4 4 313 325 354 92 347 54 276 345 337 342 348 12 5 13 30 48 42 47 19 73 44 39 19 250 85 240 193 159 141 191 98
324 328 339 346 349 358 356 357 357 358 359 357 351 354 7 2 357 328 338 244 61 258 350 356 309 314 29 358 67 350 294 74 47 2 67 127 149 5 353 31 357 4 332 307 147 175 125
311 319 329 339 343 350 356 356 356 357 357 355 354 339 3 2 10 31 286 44 85 3 351 319 281 312 87 45 315 340 44 31 29 11 345 157 97 327 358 29 313 87 253 354 80 78 202
300 306 321 333 341 341 349 353 355 355 356 355 355 334 352 358 31 73 60 83 22 358 329 292 360 347 21 25 343 22 12 26 359 15 346 34 112 57 18 305 101 314 52 255 214 162 149
286 296 314 324 339 340 343 347 351 354 355 355 5 2 348 353 44 41 73 90 88 10 337 325 354 335 20 9 357 58 37 64 1 345 342 347 290 86 307 341 359 164 193 40 311 341 318
267 293 309 320 331 341 342 346 346 351 356 359 8 311 352 3 348 39 65 58 153 145 231 279 302 330 353 356 14 38 29 32 2 336 356 23 320 162 64 90 327 297 330 305 313 75 34
266 298 310 320 332 341 345 346 347 350 354 355 331 316 353 21 26 68 130 134 210 206 207 228 275 356 352 349 310 14 15 30 356 349 2 2 211 173 187 189 193 264 186 322 292 322 233
264 291 312 319 331 343 348 349 348 348 350 350 350 320 13 49 58 16 153 111 174 240 285 307 318 272 285 329 29 34 55 79 352 356 335 308 296 308 339 26 332 212 219 223 253 249 253
259 283 299 307 320 336 347 348 347 344 344 350 357 19 349 349 69 73 282 180 184 216 222 254 226 276 325 300 297 10 1 190 209 304 288 327 306 346 293 285 265 269 255 212 211 228 250
280 280 280 289 312 326 338 344 347 346 345 333 358 315 331 310 311 271 164 191 239 229 247 183 272 71 309 322 345 342 331 332 8 169 314 163 319 291 266 286 268 270 257 243 234 248 260
270 275 271 274 288 304 316 339 358 354 355 347 345 36 291 222 220 272 87 148 173 194 213 286 289 267 256 307 314 304 303 312 333 320 317 295 287 312 261 332 305 268 252 218 215 223 232
258 263 258 260 268 280 290 304 358 12 18 13 344 315 270 220 234 244 172 261 223 225 291 200 245 270 35 343 314 274 233 242 223 208 295 291 276 304 293 289 235 98 69 25 210 248 227
246 250 252 247 252 264 269 284 325 351 21 20 10 356 315 282 280 235 225 230 227 232 240 239 194 188 174 268 273 268 201 229 182 352 238 256 257 252 274 262 301 168 203 177 182 216 207
238 244 248 247 239 243 252 267 277 308 340 12 19 7 333 311 65 313 287 252 280 247 219 198 232 198 176 258 248 267 289 7 172 176 70 236 265 271 235 272 266 67 136 124 195 256 167
220 217 216 222 220 233 240 251 262 286 299 313 328 348 353 283 292 238 275 317 296 289 298 151 177 191 198 222 239 232 235 46 247 226 171 173 210 235 238 260 277 120 140 148 238 72 157
293 276 253 226 209 208 215 226 248 268 278 288 285 300 312 281 287 270 254 234 261 246 272 131 196 189 190 230 248 231 254 155 269 184 194 199 197 212 219 242 262 145 129 222 99 120 153
286 287 288 287 274 252 241 233 231 240 261 277 274 285 286 264 260 290 286 273 260 242 276 222 316 163 228 242 258 298 233 222 260 259 184 230 224 281 221 247 59 186 305 193 176 191 222
Height
1546 1544 1543 1540 1537 1532 1529 1527 1525 1524 1522 1522 1520 1519 1516 1514 1511 1509 1506 1503 1500 1498 1495 1492 1489 1488 1486 1487 1488 1486 1484 1484 1484 1484 1486 1486 1487 1486 1485 1483 1485 1486 1487 1489 1490 1489 1489
1547 1546 1544 1541 1537 1533 1530 1527 1525 1523 1522 1521 1520 1518 1517 1514 1512 1509 1506 1503 1500 1498 1496 1492 1490 1488 1488 1489 1488 1487 1484 1484 1484 1485 1486 1488 1486 1487 1486 1480 1485 1486 1486 1491 1492 1491 1491
1549 1547 1545 1542 1539 1535 1532 1529 1526 1523 1521 1520 1519 1518 1517 1515 1513 1510 1508 1505 1502 1499 1496 1494 1492 1490 1491 1494 1489 1488 1486 1485 1485 1486 1487 1488 1489 1487 1480 1482 1483 1482 1488 1490 1491 1490 1491
1550 1548 1546 1543 1540 1537 1533 1530 1527 1524 1522 1520 1519 1517 1516 1515 1514 1512 1509 1506 1503 1500 1498 1495 1493 1493 1494 1493 1491 1491 1489 1489 1488 1487 1489 1490 1491 1489 1485 1482 1485 1485 1483 1487 1489 1489 1491
1550 1549 1546 1544 1541 1538 1535 1531 1527 1524 1522 1520 1518 1516 1515 1515 1513 1512 1509 1507 1504 1501 1498 1497 1497 1494 1495 1494 1494 1492 1491 1491 1491 1491 1490 1490 1492 1489 1486 1482 1483 1481 1486 1481 1489 1489 1489
1552 1549 1547 1544 1541 1539 1536 1532 1528 1524 1521 1519 1517 1516 1514 1513 1512 1511 1509 1507 1505 1503 1499 1498 1499 1498 1497 1497 1495 1493 1493 1492 1492 1493 1495 1494 1491 1485 1481 1477 1482 1480 1478 1475 1480 1489 1489
1552 1550 1548 1546 1542 1539 1536 1533 1529 1524 1521 1518 1516 1514 1513 1512 1512 1511 1510 1507 1508 1507 1504 1504 1505 1502 1499 1498 1497 1497 1494 1494 1495 1495 1495 1493 1489 1484 1478 1474 1474 1470 1470 1478 1481 1490 1488
1552 1551 1549 1547 1544 1540 1537 1533 1529 1525 1521 1518 1515 1512 1511 1511 1511 1510 1510 1509 1508 1509 1507 1506 1505 1503 1502 1500 1500 1498 1497 1497 1498 1501 1494 1494 1498 1489 1486 1483 1478 1470 1474 1478 1492 1492 1487
1553 1551 1549 1547 1545 1541 1538 1534 1530 1526 1522 1519 1515 1512 1509 1509 1509 1510 1509 1508 1506 1506 1506 1507 1505 1505 1504 1504 1501 1499 1499 1500 1499 1494 1491 1494 1492 1491 1487 1484 1481 1475 1473 1481 1487 1492 1485
1554 1552 1549 1547 1545 1542 1539 1535 1531 1526 1522 1519 1516 1512 1509 1507 1510 1508 1508 1507 1506 1505 1503 1509 1506 1506 1506 1504 1504 1500 1499 1501 1497 1493 1493 1493 1493 1491 1486 1485 1490 1483 1482 1485 1486 1486 1492
1554 1552 1549 1547 1544 1542 1539 1535 1531 1527 1522 1518 1516 1513 1510 1508 1507 1508 1509 1507 1506 1506 1512 1510 1508 1507 1507 1504 1504 1502 1501 1500 1498 1494 1493 1501 1496 1494 1489 1496 1493 1488 1487 1487 1485 1486 1490
1553 1551 1550 1547 1544 1542 1539 1536 1532 1527 1523 1518 1515 1513 1510 1509 1508 1507 1507 1506 1507 1510 1516 1511 1509 1508 1504 1505 1505 1503 1503 1501 1500 1495 1494 1499 1500 1500 1500 1498 1491 1490 1492 1491 1485 1485 1500
1552 1550 1549 1547 1544 1541 1539 1535 1532 1528 1523 1519 1515 1513 1509 1509 1509 1507 1506 1506 1509 1512 1515 1514 1512 1508 1505 1505 1503 1505 1502 1500 1499 1510 1505 1496 1501 1502 1502 1494 1491 1494 1489 1499 1500 1503 1494
1550 1549 1547 1546 1544 1540 1538 1535 1531 1527 1523 1519 1515 1514 1511 1509 1508 1507 1507 1506 1512 1517 1512 1514 1512 1508 1506 1507 1504 1503 1501 1499 1501 1498 1499 1503 1509 1505 1505 1502 1502 1497 1496 1499 1497 1496 1493
1549 1547 1546 1544 1543 1540 1537 1534 1531 1527 1523 1518 1515 1513 1511 1509 1508 1507 1509 1513 1523 1515 1518 1515 1509 1503 1503 1506 1507 1502 1504 1506 1508 1506 1499 1497 1503 1508 1508 1505 1507 1496 1495 1500 1497 1504 1489
1547 1545 1544 1543 1541 1539 1536 1533 1530 1527 1522 1518 1515 1514 1513 1510 1508 1508 1508 1519 1519 1523 1522 1519 1509 1509 1505 1507 1503 1503 1505 1512 1510 1509 1507 1500 1502 1507 1506 1508 1506 1503 1503 1499 1495 1499 1492
1544 1543 1543 1542 1539 1538 1536 1533 1530 1527 1522 1518 1515 1515 1514 1511 1510 1510 1514 1519 1521 1523 1524 1522 1516 1511 1510 1510 1508 1505 1508 1513 1512 1509 1507 1504 1498 1507 1508 1504 1502 1501 1498 1501 1498 1498 1487
1542 1541 1541 1540 1538 1536 1535 1532 1530 1527 1523 1519 1516 1517 1515 1512 1513 1512 1516 1519 1522 1521 1522 1522 1521 1517 1514 1513 1510 1508 1508 1511 1515 1514 1507 1508 1502 1502 1502 1509 1510 1507 1500 1498 1497 1499 1498
1539 1539 1539 1538 1538 1536 1534 1532 1529 1527 1523 1520 1519 1517 1516 1513 1513 1516 1521 1520 1521 1521 1520 1519 1518 1519 1518 1515 1513 1512 1514 1518 1517 1515 1513 1511 1503 1503 1504 1508 1508 1505 1501 1504 1500 1499 1495
1537 1537 1537 1537 1536 1535 1533 1531 1529 1527 1524 1523 1521 1519 1518 1516 1518 1518 1519 1519 1521 1523 1522 1521 1519 1519 1516 1514 1515 1514 1513 1517 1517 1517 1518 1517 1506 1502 1496 1502 1503 1503 1504 1505 1501 1503 1488
1535 1535 1535 1535 1535 1535 1532 1530 1529 1526 1525 1524 1522 1523 1523 1519 1518 1520 1521 1519 1520 1520 1523 1522 1519 1518 1516 1513 1512 1511 1513 1515 1517 1517 1516 1515 1508 1514 1505 1506 1508 1504 1501 1504 1505 1499 1498
1533 1534 1534 1533 1533 1533 1532 1530 1528 1526 1525 1524 1523 1524 1523 1523 1523 1521 1521 1520 1519 1521 1521 1520 1520 1519 1519 1517 1516 1514 1515 1513 1513 1516 1514 1514 1508 1511 1507 1509 1509 1507 1501 1500 1500 1500 1496
1530 1531 1532 1531 1532 1531 1531 1530 1528 1526 1524 1523 1522 1521 1523 1522 1520 1520 1516 1517 1519 1521 1523 1522 1520 1519 1518 1519 1520 1519 1519 1519 1519 1516 1513 1513 1511 1509 1500 1506 1503 1496 1486 1491 1494 1496 1496
1526 1527 1529 1529 1529 1529 1530 1530 1528 1526 1525 1524 1523 1522 1523 1515 1519 1517 1519 1521 1520 1520 1520 1521 1522 1521 1522 1521 1521 1520 1519 1518 1517 1517 1519 1514 1513 1513 1508 1503 1504 1491 1492 1490 1492 1494 1494
1520 1523 1524 1525 1525 1527 1528 1528 1527 1526 1525 1524 1523 1523 1524 1517 1518 1518 1519 1519 1520 1521 1521 1520 1520 1521 1521 1523 1518 1514 1514 1517 1517 1519 1518 1518 1512 1510 1511 1500 1482 1488 1492 1491 1490 1485 1488
1515 1516 1519 1521 1522 1523 1525 1525 1526 1526 1525 1524 1523 1523 1524 1523 1517 1520 1520 1520 1516 1516 1519 1520 1520 1519 1521 1520 1516 1509 1501 1504 1507 1518 1521 1520 1519 1515 1512 1509 1491 1481 1490 1493 1492 1486 1487
1512 1513 1513 1515 1517 1519 1521 1522 1523 1524 1523 1524 1523 1523 1523 1523 1519 1519 1519 1519 1520 1519 1517 1519 1520 1521 1521 1515 1512 1508 1502 1509 1502 1503 1514 1516 1516 1513 1505 1505 1487 1484 1490 1492 1494 1489 1490
1509 1510 1512 1511 1513 1514 1516 1518 1520 1521 1522 1522 1522 1522 1523 1522 1519 1517 1518 1519 1519 1519 1515 1519 1519 1518 1520 1518 1511 1505 1506 1504 1507 1502 1504 1503 1504 1505 1501 1500 1496 1488 1493 1492 1487 1489 1490
1507 1507 1508 1510 1510 1512 1512 1513 1515 1517 1518 1519 1520 1521 1521 1521 1517 1515 1515 1516 1517 1517 1518 1517 1516 1515 1514 1514 1512 1509 1508 1508 1501 1496 1504 1503 1493 1488 1491 1483 1486 1488 1487 1487 1488 1489 1489